Regional Weather Roundup
Issued by NWS State College, PA

Home | Current Version | Previous Version | Text Only | Print | Product List | Glossary On
Versions: 1 2 3 4 5 6 7 8 9 10 11 12 13 14 15 16 17 18 19 20 21 22 23 24 25 26 27 28 29 30 31 32 33 34 35 36 37 38 39 40 41 42 43 44 45 46 47 48 49 50
000
ASUS41 KCTP 300510
RWRCTP

REGIONAL WEATHER ROUNDUP
NATIONAL WEATHER SERVICE STATE COLLEGE PA
100 AM EDT MON MAR 30 2015

Note: "fair" indicates few or no clouds below 12,000 feet with no
significant weather and/or obstructions to visibility.

* = STATION THAT DOES NOT REPORT PRECIPITATION /E.G. RAIN...SNOW...ETC/
    THUNDER OR FOG.

PAZ002>004-007>009-013>016-020>023-029>032-300600-
WESTERN PENNSYLVANIA

CITY           SKY/WX    TMP DP  RH WIND       PRES   REMARKS
ERIE           CLOUDY    40  28  62 S22G35    29.78F
MEADVILLE      CLOUDY    35  30  82 S16G29    29.81F
FRANKLIN*      CLOUDY    34  27  75 S13G22    29.87F
NEW CASTLE     CLOUDY    35  32  89 VRB6      29.89F
BEAVER COUNTY  NOT AVBL
BUTLER*        CLOUDY    34  30  86 S6        29.92F
PITTSBURGH INT CLOUDY    36  33  89 SW8       29.92F
PITTSBURGH     CLOUDY    37  27  67 S10       29.93F
INDIANA*       CLOUDY    34  34 100 SW5       29.96F
LATROBE        CLOUDY    36  34  93 S5        29.96F
WASHINGTON CO* CLOUDY    39  28  65 SW13G22   29.97R
$$

PAZ004>006-010>012-017>019-024>028-033>037-041-042-045-046-049>053-300600-
CENTRAL PENNSYLVANIA

CITY           SKY/WX    TMP DP  RH WIND       PRES   REMARKS
BRADFORD       FLURRIES  33  23  66 SW12G22   29.83F
DUBOIS         LGT SNOW  34  29  82 SW10      29.89F
CLEARFIELD     LGT SNOW  34  29  82 SW15G33   29.94R
JOHNSTOWN      CLOUDY    32  29  88 S5        29.89F
ALTOONA        LGT SNOW  36  27  69 W15G26    29.97R
STATE COLLEGE  CLOUDY    39   8  27 SW13      29.96R
WILLIAMSPORT   CLOUDY    40   8  26 S9G20     29.97F
SELINSGROVE    CLOUDY    40  10  29 S9G18     30.00F
FT INDIANTOWN  CLOUDY    33  16  50 NE2       30.04F
CAPITAL CITY   CLOUDY    39   7  26 CALM      30.03F
HARRISBURG     CLOUDY    40  11  30 S9        30.03F
YORK           CLOUDY    41   8  25 VRB3      30.03F
$$

PAZ038>040-043-044-047-048-054-055-060>062-067>071-300600-
EASTERN PENNSYLVANIA

CITY           SKY/WX    TMP DP  RH WIND       PRES   REMARKS
SCRANTON       CLOUDY    37   7  28 SW6       29.99F
MOUNT POCONO   MOCLDY    31   8  38 SW10      29.98F
ALLENTOWN      CLOUDY    37  13  37 S9        30.07F
QUAKERTOWN*    MOCLDY    32  14  47 SW5       30.09F
READING        CLOUDY    38  12  34 S9        30.05F
LANCASTER      CLOUDY    36  17  46 S10       30.05F
COATESVILLE    MOCLDY    34  16  47 S3        30.07F
POTTSTOWN      MOCLDY    35  13  40 S6        30.10F
BLUE BELL      CLOUDY    36  18  48 S3        30.10F
DOYLESTOWN     CLOUDY    33  13  43 S5        30.09F
WILLOW GROVE   NOT AVBL
NORTH PHILA    CLOUDY    38  11  32 S3        30.14F
PHILADELPHIA   CLOUDY    37  15  40 S7        30.14F
$$



USA.gov is the U.S. government's official web portal to all federal, state and local government web resources and services.